Location: St. Louis
(38.6270°N, 90.1994°W)
Time: 08:44:23
(UTC-06:00)

SR - Pass Details

Date: 01 December 2021
Orbit: 582 x 872 km, 66.7° (Epoch: 21 January)

Event Time Altitude Azimuth Distance (km) Brightness Sun altitude
Rises 09:41:07 0° 322° (NW) 2,836 ? 22.4°
Reaches altitude 10° 09:43:25 10° 314° (NW) 1,953 ? 22.6°
Maximum altitude 09:47:27 37° 247° (WSW) 973 ? 23.0°
Drops below altitude 10° 09:51:43 10° 180° (S) 2,064 ? 23.4°
Sets 09:54:13 0° 172° (S) 3,021 ? 23.7°
